EZY5810 EGHQ-EGJJ

Flight info

Callsign EZY5810
Flight time N/A
Altitude 21000
Route BHD DCT SKERY
Aircraft A320/M-SDE3FGHIRWY/LB1

Departure

Time 2026-05-05 20:29
Airport Cornwall Airport Newquay (EGHQ)

Arrival

Time N/A
Airport Jersey Airport (EGJJ)
Time Latitude Longitude Altitude Speed Heading
2026-05-05 20:11 50.44651 -5.00399 333 ft 0 kts 76°
2026-05-05 20:18 50.44650 -5.00406 330 ft 3 kts 76°
2026-05-05 20:19 50.44650 -5.00407 330 ft 0 kts 76°
2026-05-05 20:19 50.44646 -5.00429 330 ft 3 kts 76°
2026-05-05 20:19 50.44643 -5.00446 330 ft 3 kts 76°
2026-05-05 20:19 50.44640 -5.00476 328 ft 3 kts 104°
2026-05-05 20:20 50.44644 -5.00494 328 ft 0 kts 129°
2026-05-05 20:24 50.44639 -5.00483 328 ft 8 kts 125°
2026-05-05 20:24 50.44545 -5.00229 336 ft 33 kts 120°
2026-05-05 20:25 50.44431 -4.99931 353 ft 32 kts 121°
2026-05-05 20:25 50.44322 -4.99641 353 ft 30 kts 119°
2026-05-05 20:25 50.44220 -4.99365 358 ft 29 kts 122°
2026-05-05 20:25 50.44116 -4.99091 363 ft 29 kts 120°
2026-05-05 20:26 50.44014 -4.98824 372 ft 27 kts 121°
2026-05-05 20:26 50.43922 -4.98579 378 ft 25 kts 122°
2026-05-05 20:26 50.43833 -4.98343 382 ft 25 kts 119°
2026-05-05 20:26 50.43745 -4.98111 388 ft 24 kts 120°
2026-05-05 20:27 50.43652 -4.97908 393 ft 22 kts 140°
2026-05-05 20:27 50.43621 -4.97875 393 ft 0 kts 156°
2026-05-05 20:27 50.43619 -4.97874 393 ft 7 kts 156°
2026-05-05 20:27 50.43465 -4.97875 392 ft 17 kts 226°
2026-05-05 20:28 50.43494 -4.98016 392 ft 18 kts 315°
2026-05-05 20:28 50.43588 -4.98236 382 ft 28 kts 300°
2026-05-05 20:28 50.43617 -4.98310 378 ft 3 kts 301°
2026-05-05 20:28 50.43621 -4.98321 378 ft 3 kts 301°
2026-05-05 20:29 50.43685 -4.98492 370 ft 60 kts 301°
2026-05-05 20:29 50.44056 -4.99479 351 ft 146 kts 300°
2026-05-05 20:29 50.44635 -5.01059 761 ft 177 kts 300°
2026-05-05 20:29 50.45170 -5.02833 1641 ft 192 kts 297°
2026-05-05 20:30 50.45722 -5.04880 2461 ft 216 kts 296°
2026-05-05 20:30 50.46354 -5.07175 3317 ft 241 kts 297°
2026-05-05 20:30 50.47300 -5.09394 4397 ft 250 kts 320°
2026-05-05 20:30 50.48821 -5.10709 5651 ft 254 kts 347°
2026-05-05 20:31 50.50595 -5.10698 6933 ft 261 kts 15°
2026-05-05 20:31 50.52179 -5.09244 8200 ft 273 kts 45°
2026-05-05 20:31 50.53119 -5.06616 9212 ft 285 kts 75°
2026-05-05 20:31 50.53050 -5.03524 10034 ft 296 kts 105°
2026-05-05 20:32 50.52318 -5.00384 10466 ft 318 kts 111°
2026-05-05 20:32 50.51391 -4.97083 10771 ft 342 kts 114°
2026-05-05 20:32 50.50353 -4.93600 11184 ft 359 kts 114°
2026-05-05 20:32 50.49285 -4.90013 11924 ft 365 kts 114°
2026-05-05 20:33 50.48225 -4.86366 12725 ft 370 kts 114°
2026-05-05 20:33 50.47171 -4.82653 13525 ft 374 kts 114°
2026-05-05 20:33 50.46124 -4.78892 14256 ft 378 kts 113°
2026-05-05 20:33 50.45075 -4.75083 14958 ft 382 kts 113°
2026-05-05 20:34 50.44019 -4.71232 15655 ft 386 kts 113°
2026-05-05 20:34 50.42951 -4.67341 16349 ft 390 kts 113°
2026-05-05 20:34 50.41865 -4.63410 17035 ft 395 kts 113°
2026-05-05 20:34 50.40767 -4.59440 17712 ft 399 kts 113°
2026-05-05 20:35 50.39658 -4.55436 18381 ft 403 kts 113°
2026-05-05 20:35 50.38533 -4.51393 18983 ft 406 kts 113°
2026-05-05 20:35 50.37392 -4.47318 19574 ft 410 kts 114°
2026-05-05 20:35 50.36236 -4.43208 20160 ft 414 kts 114°
2026-05-05 20:36 50.35070 -4.39062 20729 ft 418 kts 114°
2026-05-05 20:36 50.33898 -4.34891 20964 ft 420 kts 114°
2026-05-05 20:36 50.32707 -4.30651 21005 ft 434 kts 114°
2026-05-05 20:36 50.31476 -4.26278 21002 ft 443 kts 114°
2026-05-05 20:37 50.30229 -4.21859 21001 ft 445 kts 114°
2026-05-05 20:37 50.28977 -4.17433 21001 ft 445 kts 114°
2026-05-05 20:37 50.27723 -4.13012 20998 ft 445 kts 114°
2026-05-05 20:37 50.26464 -4.08588 20995 ft 445 kts 114°
2026-05-05 20:38 50.25204 -4.04175 20994 ft 445 kts 114°
2026-05-05 20:38 50.23960 -3.99821 20992 ft 445 kts 114°
2026-05-05 20:38 50.22700 -3.95409 20996 ft 445 kts 114°
2026-05-05 20:38 50.21443 -3.91006 20992 ft 445 kts 114°
2026-05-05 20:39 50.20162 -3.86532 20994 ft 457 kts 114°
2026-05-05 20:39 50.18845 -3.81948 20987 ft 469 kts 114°
2026-05-05 20:39 50.17492 -3.77255 20986 ft 478 kts 114°
2026-05-05 20:39 50.16118 -3.72487 20984 ft 486 kts 114°
2026-05-05 20:40 50.14761 -3.67679 21454 ft 480 kts 113°
2026-05-05 20:40 50.13443 -3.62917 21757 ft 480 kts 114°
2026-05-05 20:40 50.12067 -3.58150 21770 ft 484 kts 115°
2026-05-05 20:40 50.10650 -3.53382 21942 ft 485 kts 115°
2026-05-05 20:41 50.09219 -3.48617 22089 ft 486 kts 115°
2026-05-05 20:41 50.07795 -3.43850 22231 ft 487 kts 115°
2026-05-05 20:41 50.06377 -3.39059 22359 ft 487 kts 115°
2026-05-05 20:41 50.04968 -3.34262 22467 ft 488 kts 114°
2026-05-05 20:42 50.03563 -3.29457 22566 ft 488 kts 114°
2026-05-05 20:42 50.02156 -3.24646 22641 ft 489 kts 114°
2026-05-05 20:42 50.00655 -3.19901 22729 ft 490 kts 120°
2026-05-05 20:42 49.98688 -3.15587 22808 ft 490 kts 130°
2026-05-05 20:43 49.96290 -3.11822 22868 ft 490 kts 137°
2026-05-05 20:43 49.93809 -3.08183 22924 ft 491 kts 136°
2026-05-05 20:43 49.91331 -3.04532 22977 ft 491 kts 136°
2026-05-05 20:43 49.88852 -3.00876 23022 ft 492 kts 136°
2026-05-05 20:44 49.86369 -2.97216 23069 ft 492 kts 136°
2026-05-05 20:44 49.83887 -2.93562 23109 ft 492 kts 136°
2026-05-05 20:44 49.81399 -2.89913 23160 ft 492 kts 136°
2026-05-05 20:44 49.78910 -2.86277 23198 ft 493 kts 136°
2026-05-05 20:45 49.73925 -2.79004 23196 ft 494 kts 136°
2026-05-05 20:45 49.71425 -2.75321 23160 ft 494 kts 135°
2026-05-05 20:45 49.69056 -2.71654 23601 ft 466 kts 133°
2026-05-05 20:46 49.66826 -2.68135 22945 ft 455 kts 133°
2026-05-05 20:46 49.64609 -2.64665 22003 ft 453 kts 133°
2026-05-05 20:46 49.62614 -2.60949 21093 ft 448 kts 121°
2026-05-05 20:46 49.61309 -2.56629 20200 ft 443 kts 105°
2026-05-05 20:47 49.60784 -2.51991 19340 ft 438 kts 90°
2026-05-05 20:47 49.61050 -2.47361 18498 ft 433 kts 76°
2026-05-05 20:47 49.62061 -2.43024 17581 ft 429 kts 62°
2026-05-05 20:47 49.63732 -2.39255 16673 ft 425 kts 47°
2026-05-05 20:48 49.65949 -2.36274 15761 ft 423 kts 33°
2026-05-05 20:48 49.68526 -2.34280 14994 ft 418 kts 19°
2026-05-05 20:48 49.71341 -2.33311 14303 ft 413 kts
2026-05-05 20:48 49.73399 -2.33279 13799 ft 410 kts 355°
2026-05-05 20:49 49.74785 -2.33578 13426 ft 408 kts 349°
2026-05-05 20:49 49.77462 -2.34960 12652 ft 405 kts 335°
2026-05-05 20:49 49.79797 -2.37246 11927 ft 402 kts 322°
2026-05-05 20:49 49.81754 -2.40379 11203 ft 399 kts 308°
2026-05-05 20:50 49.83147 -2.44080 10488 ft 397 kts 295°
2026-05-05 20:50 49.83787 -2.46725 9997 ft 395 kts 291°
2026-05-05 20:50 49.85014 -2.52046 8904 ft 389 kts 291°
2026-05-05 20:50 49.85925 -2.55970 8085 ft 385 kts 291°
2026-05-05 20:51 49.86827 -2.59847 7279 ft 380 kts 291°
2026-05-05 20:51 49.87707 -2.63624 6484 ft 375 kts 291°
2026-05-05 20:51 49.88589 -2.67396 5655 ft 370 kts 291°
2026-05-05 20:51 49.89457 -2.71124 4804 ft 365 kts 291°
2026-05-05 20:52 49.90306 -2.74793 4183 ft 355 kts 291°
2026-05-05 20:52 49.91108 -2.78287 3993 ft 332 kts 291°
2026-05-05 20:52 49.91581 -2.81672 3961 ft 312 kts 275°
2026-05-05 20:52 49.91376 -2.84901 3962 ft 293 kts 257°
2026-05-05 20:53 49.90599 -2.87703 3968 ft 275 kts 239°
2026-05-05 20:53 49.89411 -2.89884 3967 ft 257 kts 222°
2026-05-05 20:53 49.87983 -2.91388 3971 ft 240 kts 206°
2026-05-05 20:53 49.86467 -2.92226 3970 ft 223 kts 192°
2026-05-05 20:54 49.84983 -2.92474 3965 ft 206 kts 178°
2026-05-05 20:54 49.83614 -2.92242 3870 ft 193 kts 165°
2026-05-05 20:54 49.82309 -2.91571 3364 ft 204 kts 152°
2026-05-05 20:54 49.81110 -2.90446 3164 ft 196 kts 139°
2026-05-05 20:55 49.80161 -2.89036 2997 ft 187 kts 126°
2026-05-05 20:55 49.79406 -2.87346 2557 ft 195 kts 116°
2026-05-05 20:55 49.78795 -2.85526 2370 ft 186 kts 124°
2026-05-05 20:55 49.77758 -2.84128 1649 ft 207 kts 131°
2026-05-05 20:56 49.76756 -2.82698 1750 ft 177 kts 134°
2026-05-05 20:56 49.75850 -2.81431 1822 ft 196 kts 133°
2026-05-05 20:56 49.74855 -2.79955 2960 ft 187 kts 133°
2026-05-05 20:56 49.73959 -2.78658 4444 ft 174 kts 137°
2026-05-05 20:57 49.72963 -2.77454 5476 ft 188 kts 134°
2026-05-05 20:57 49.71950 -2.76047 6353 ft 204 kts 137°
2026-05-05 20:57 49.70909 -2.74619 7538 ft 206 kts 137°
2026-05-05 20:57 49.69512 -2.72878 6450 ft 317 kts 139°
2026-05-05 20:58 49.67677 -2.70262 5641 ft 390 kts 135°
2026-05-05 20:58 49.65642 -2.67426 6423 ft 398 kts 136°
2026-05-05 20:58 49.63533 -2.64550 7137 ft 401 kts 137°
2026-05-05 20:58 49.61404 -2.61809 6964 ft 399 kts 139°
2026-05-05 20:59 49.59177 -2.59073 6289 ft 402 kts 138°
2026-05-05 20:59 49.57099 -2.56295 5974 ft 394 kts 138°
2026-05-05 20:59 49.54959 -2.53637 5154 ft 399 kts 143°
2026-05-05 20:59 49.52809 -2.51042 4455 ft 392 kts 141°
2026-05-05 21:00 49.50763 -2.48304 4019 ft 383 kts 138°
2026-05-05 21:00 49.49416 -2.46419 3129 ft 394 kts 138°
2026-05-05 21:00 49.46786 -2.42771 2802 ft 378 kts 138°
2026-05-05 21:00 49.45569 -2.40899 2766 ft 370 kts 135°
2026-05-05 21:01 49.43789 -2.38096 2040 ft 373 kts 135°
2026-05-05 21:01 49.42001 -2.35367 2468 ft 344 kts 134°
2026-05-05 21:01 49.40294 -2.32935 3435 ft 329 kts 135°
2026-05-05 21:01 49.38584 -2.30534 3866 ft 339 kts 135°
2026-05-05 21:02 49.36810 -2.28043 3995 ft 353 kts 136°
2026-05-05 21:02 49.34969 -2.25459 4012 ft 364 kts 136°
2026-05-05 21:02 49.33246 -2.22579 4004 ft 369 kts 122°
2026-05-05 21:02 49.31851 -2.19254 4012 ft 373 kts 120°
2026-05-05 21:03 49.30455 -2.15883 4008 ft 376 kts 121°
2026-05-05 21:03 49.29052 -2.12629 4497 ft 356 kts 123°
2026-05-05 21:03 49.27689 -2.09600 5548 ft 335 kts 121°
2026-05-05 21:03 49.26454 -2.06656 6729 ft 323 kts 120°
2026-05-05 21:04 49.24997 -2.04093 7821 ft 321 kts 143°
2026-05-05 21:04 49.22940 -2.02862 8946 ft 319 kts 173°
2026-05-05 21:04 49.22096 -2.02832 9379 ft 318 kts 185°
2026-05-05 21:05 49.21251 -2.03047 9802 ft 315 kts 194°
2026-05-05 21:05 49.19099 -2.04326 9203 ft 357 kts 208°
2026-05-05 21:06 49.16781 -2.05846 9527 ft 360 kts 198°
2026-05-05 21:06 49.14490 -2.07093 10639 ft 340 kts 207°
2026-05-05 21:06 49.12617 -2.09109 11904 ft 321 kts 225°
2026-05-05 21:06 49.11292 -2.11704 13210 ft 306 kts 242°
2026-05-05 21:07 49.10463 -2.14774 13446 ft 327 kts 260°
2026-05-05 21:07 49.10364 -2.18287 13671 ft 340 kts 278°